Regional Weather Roundup
Issued by NWS

Home | Current Version | Previous Version | Graphics & Text | Print | Product List | Glossary On
Versions: 1 2 3 4 5 6 7 8 9 10 11 12 13 14 15 16 17 18 19 20 21 22 23 24 25 26 27 28 29 30 31 32 33 34 35 36 37 38 39 40 41 42 43 44 45 46 47 48 49 50
000
ASUS43 KIND 251559
RWRIN

WEATHER ROUNDUP FOR INDIANA
NATIONAL WEATHER SERVICE INDIANAPOLIS IN
1200 PM EDT SAT OCT 25 2014

NOTE: "FAIR" INDICATES FEW OR NO CLOUDS BELOW 12,000 FEET WITH NO
SIGNIFICANT WEATHER AND/OR OBSTRUCTIONS TO VISIBILITY.

* - STATION DOES NOT REPORT WEATHER SUCH AS PRECIPITATION OR FOG.

+ - STATION NOT QUALITY CONTROLLED BY THE NATIONAL WEATHER SERVICE.
    USE DATA WITH CAUTION...ESPECIALLY DEWPOINT AND RELATIVE
    HUMIDITY OBSERVATIONS.

INZ001>003-010>013-019-020-251700-
NORTHWEST INDIANA

CITY           SKY/WX    TMP DP  RH WIND       PRES   REMARKS
GARY /AIRPORT/ MOSUNNY   66  55  68 W17       29.95S
VALPARAISO     NOT AVBL

$$

LMZ046-743>745-251700-
SOUTHERN LAKE MICHIGAN

STATION/POSITION TIME  TEMP WIND        PRES
                       AIR  DIR/SP/G
                 (UTC) (F)  (DEG/KT/KT) (MB)
MICHIGAN CITY    1500   57  210/ 15/ 17   N/A

$$

INZ004-005-014>016-021>024-251700-
NORTH CENTRAL INDIANA

CITY           SKY/WX    TMP DP  RH WIND       PRES   REMARKS
GOSHEN         CLOUDY    58  54  86 W13       29.91S FOG
SOUTH BEND     PTSUNNY   63  53  70 NW17      29.94R

$$

INZ006>009-017-018-025>027-251700-
NORTHEAST INDIANA

CITY           SKY/WX    TMP DP  RH WIND       PRES   REMARKS
ANGOLA *+      CLOUDY    57  48  72 W10       29.88F
FORT WAYNE     MOSUNNY   65  54  67 W14       29.91F

$$

INZ028-029-035-036-043>045-051>053-251700-
WEST CENTRAL INDIANA

CITY           SKY/WX    TMP DP  RH WIND       PRES   REMARKS
GREENCASTLE +  SUNNY     64  55  72 SW3       29.99F
LAFAYETTE      SUNNY     63  55  75 W13       29.97R
TERRE HAUTE    SUNNY     65  56  72 VRB5      30.00S

$$

INZ030>032-037>040-046>048-054>057-064-065-251700-
CENTRAL INDIANA

CITY           SKY/WX    TMP DP  RH WIND       PRES   REMARKS
ANDERSON       SUNNY     64  54  68 W10       29.97S
INDIANAPOLIS   MOSUNNY   65  55  70 W9        29.97F
-EAGLE CREEK   SUNNY     66  55  67 VRB6      29.97F
KOKOMO *+      SUNNY     64  55  72 W14       29.95S
MT COMFORT *+  SUNNY     64  50  59 W8        29.97S
SHELBYVILLE    MOSUNNY   66  56  70 SW10      29.96F

$$

INZ033-034-041-042-049-050-058-059-251700-
EAST CENTRAL INDIANA

CITY           SKY/WX    TMP DP  RH WIND       PRES   REMARKS
MUNCIE         SUNNY     65  55  70 W10       29.94F

$$

INZ060-061-067>069-081>083-085>088-251700-
SOUTHWEST INDIANA

CITY           SKY/WX    TMP DP  RH WIND       PRES   REMARKS
EVANSVILLE     SUNNY     68  58  70 W7        30.03F
HUNTINGBURG *+ PTSUNNY   66  57  72 NW7       30.03F

$$

INZ062-063-066-070>080-084-089>092-251700-
SOUTH CENTRAL AND SOUTHEAST INDIANA

CITY           SKY/WX    TMP DP  RH WIND       PRES   REMARKS
BLOOMINGTON    MOSUNNY   64  57  78 SW8       30.00F

$$




USA.gov is the U.S. government's official web portal to all federal, state and local government web resources and services.